[Date Prev][Date Next][Thread Prev][Thread Next] - [Date Index][Thread Index][Author Index]
2 Line ISS Keps 3-26
- Subject: [sarex] 2 Line ISS Keps 3-26
- From: "Dave Larsen PhD" <doc@xxxxxxxxxxx>
- Date: Tue, 26 Mar 2002 03:32:50 -0800
ISS
1 25544U 98067A 02085.20924782 .00049836 00000-0 63563-3 0 2303
2 25544 51.6368 109.8800 0003537 319.8384 82.9111 15.58783332191098
----
Via the sarex mailing list at AMSAT.ORG courtesy of AMSAT-NA.
To unsubscribe, send "unsubscribe sarex" to Majordomo@amsat.org
AMSAT Home